Flag for Germany Weather for the Past 2 Weeks in Weilheim in Oberbayern, Bavaria, Germany

Now
46 °F

Rain showers. Partly sunny.


Feels Like: 39 °F
Forecast: 37 / 54 °F
Wind: 18 mph from Northwest

Location: Altenstadt Airport

Current Time: May 3, 2016 at 3:35:28 PM

Latest Report: May 3, 2016 at 2:59 PM


Visibility: N/A

Pressure: 30.09 "Hg (28.11 "Hg at 560m altitude)

Humidity: 76%

Dew Point: 39 °F

Location of Weilheim in OberbayernLocation

Historic Weather in Weilheim in Oberbayern — Graph

°F

Weilheim in Oberbayern Temperature Yesterday

Maximum temperature yesterday: 52 °F (at 1:20 PM)
Minimum temperature yesterday: 39 °F (at 6:20 AM)
Average temperature yesterday: 47 °F

High & Low Weather Summary for the Past Weeks

 TemperatureHumidityPressure
High64 °F (Apr 21, 5:20 PM)100% (Apr 19, 12:20 AM)30.33 "Hg (Apr 19, 12:20 AM)
Low27 °F (Apr 28, 3:20 AM)31% (Apr 30, 5:20 PM)29.59 "Hg (Apr 26, 9:20 AM)
Average42 °F75%29.98 "Hg
* Reported Apr 18 2:03 PM — May 3 2:20 PM, Weilheim in Oberbayern, Weather by CustomWeather, © 2016

Note: Actual official high and low records may vary slightly from our data, if they occured in-between our weather recording intervals... More about our weather records

Advertising

Weilheim in Oberbayern Weather History for the Previous 24 Hours

Scroll right to see more
 ConditionsComfort  
Time TempWeatherWind HumidityBarometerVisibility
2:20 PM
Tue, May 3
48 °FBroken clouds.21 mph71%30.09 "HgN/A
1:20 PM48 °FSprinkles. Partly sunny.12 mph76%30.09 "HgN/A
12:56 PM50 °FRain showers. Partly sunny.18 mph62%30.07 "HgN/A
12:20 PM55 °FScattered showers. Scattered clouds.16 mph59%30.07 "HgN/A
11:20 AM54 °FScattered clouds.13 mph63%30.09 "HgN/A
10:20 AM54 °FScattered clouds.12 mph67%30.09 "HgN/A
9:20 AM48 °FPartly sunny.13 mph82%30.09 "HgN/A
8:20 AM48 °FPartly sunny.7 mph82%30.09 "HgN/A
7:20 AM46 °FPartly sunny.7 mph76%30.09 "HgN/A
6:20 AM43 °FPassing clouds.6 mph87%30.09 "HgN/A
5:20 AM41 °FPartly cloudy.6 mph93%30.09 "HgN/A
4:20 AM43 °FQuite cool.5 mph87%30.09 "HgN/A
3:20 AM43 °FQuite cool.7 mph87%30.09 "HgN/A
2:20 AM45 °FQuite cool.7 mph81%30.09 "HgN/A
1:20 AM45 °FQuite cool.7 mph87%30.09 "HgN/A
12:20 AM45 °FQuite cool.6 mph93%30.12 "HgN/A
11:20 PM
Mon, May 2
46 °FCool.6 mph87%30.12 "HgN/A
10:20 PM46 °FCool.5 mph87%30.12 "HgN/A
9:20 PM46 °FCool.5 mph87%30.12 "HgN/A
8:20 PM48 °FPartly sunny.7 mph82%30.12 "HgN/A
7:20 PM52 °FPartly sunny.8 mph77%30.12 "HgN/A
6:20 PM52 °FPartly sunny.No wind77%30.12 "HgN/A
5:20 PM52 °FPartly sunny.6 mph77%30.12 "HgN/A
4:20 PM52 °FBroken clouds.5 mph77%30.12 "HgN/A
3:20 PM52 °FPartly sunny.5 mph72%30.12 "HgN/A
Weather by CustomWeather, © 2016

See weather overviewHow to use our weather pages